Find Kosmos-2143

NORAD ID: 21299 Int'l Des: 1991-033 Owner: UNKSR Country: SU operational
LEOCIRCULARPOLAR

Current View

Loading 3D Globe...

About Kosmos-2143

Kosmos-2143 (NORAD 21299) is a satellite launched May 16, 1991 by UNKSR of SU. It operates in LEO, CIRCULAR, POLAR orbit with a mass of 225.00 kg.

Upcoming Passes

Passes for default location (London). Set your location on the main map for personalized predictions.

Altitude History

Loading altitude history...

Two-Line Element Set

1 21299U 91033A 26197.18367919 .00000032 00000-0 11593-3 0 9995
2 21299 82.5752 284.1898 0012452 352.5387 32.0521 12.63929604622231
Epoch: Jul 16, 2026 • Age: 7 hours

Current Status

Altitude 1428.0 km
Apogee / Perigee N/A
Velocity 7.14 km/s
Sub-Earth Point -38.82°S, 8.68°E
Launch Date May 16, 1991
Age 35.1 years
Type other

Technical Details

Classification Payload
Mass 225.00 kg
Dry Mass 225.00 kg
Total Mass 225.00 kg
Length 1.60 m
Diameter 0.80 m
Span 7.00 m
Shape Cyl + Ant
Manufacturer NPOPM
Bus Type Strela-3
Phase Status In Orbit
Owner/State UNKSR/SU

Most Searched